(T05) ATLAS-HKO, Haleakala  (N20.707573 W156.257010)  US/Hawaii.  Observers
   L. Denneau, A. Heinze, H. Weiland, J. Tonry, H. Flewelling, A.
   Fitzsimmons, D. Young, B. Stalder. Measurers L. Denneau, A. Heinze, J.
   Tonry. 0.5-m f/2.0 Schmidt + CCD.
(Z80) Northolt Branch Observatory  (N51.554661 W0.371920)  UK.  Observer G.
   Wells. Measurer D. Bamberger. 0.25-m f/8 Ritchey-Chrétien + CCD.
(Z99) Clixby Observatory, Cleethorpes  (N53.546062 W0.021260)  UK.

Orbital elements:  C1A28N1
   Perihelion 2020 Jun 6.032905 +/- 0.0948 TT =  0:47:23 (JD 2459006.532905)
Epoch 2020 Sep 18.0 TT = JDT 2459110.5   Earth MOID: 0.0892   Ve: 0.0261
M 165.83716926 +/- 0.024            Me: 0.0662                AutoNEOCP
n   1.59509284 +/- 0.00122          Peri.  249.69542 +/- 0.06
a   0.72545765 +/- 0.000371         Node   292.72350 +/- 0.06
e   0.3619560 +/- 0.000669          Incl.    5.75721 +/- 0.013
P   0.62/225.69d           H 20.4   G  0.15   U  8.2  
q 0.46287385 +/- 0.000721    Q 0.98804146 +/- 2.08e-5
From 90 observations 2020 Sept. 16-18 (47.2 hr); mean residual 0".29
Residuals in arcseconds: 
200916 703  .04-  .11+    200916 K38  .15-  .22+    200917 K87  .53+  .31-    
200916 703  .71+  .79-    200916 I93  .25+  .06+    200917 K87  .11+  .19+    
200916 703  .41+  .04+    200916 L04  .67-  .21+    200917 J95  .17-  .11+    
200916 I52  .13-  .07+    200916 K38  .26-  .01-    200917 J95  .24-  .02-    
200916 I52  .15-  .26+    200916 I93  .11+  .25+    200917 J95  .17-  .10+    
200916 I52  .23-  .04+    200916 K63  .02+  .07+    200917 J95  .03-  .12-    
200916 I52  .38-  .13+    200916 K63  .19+  .24-    200917 Z99  .11-  .18+    
200916 T05  .09-  .31-    200917 H36  .45+  .10+    200917 Z99  .06+  .02-    
200916 T05  .44-  .37+    200917 H36  .51+  .14-    200917 Z99  .11+  .08-    
200916 T05  .39-  .14+    200917 H36  .59+  .15-    200917 Z99  .04+  .01-    
200916 T05  .10-  .18+    200917 711  .02+  .07-    200917 Z99  .33-  .22-    
200916 204  .17-  .20+    200917 711  .21-  .28-    200917 203  .01-  .12+    
200916 204  .09+  .02+    200917 711  .29-  .13+    200917 203  .19+  .16+    
200916 C95  .10+  .23+    200917 I52  .03+  .12+    200917 Z80  .38-  .74-    
200916 204  .15-  .07+    200917 I52  .11-  .19+    200917 J69  .59+  .11+    
200916 C95  .30-  .09-    200917 I52  .23+  .27+    200917 Z80  .40-  .88-    
200916 595  .10-  .04+    200917 I52  .17-  .16-    200917 J69  .31+  .05-    
200916 C95  .15+  .35-    200917 L01  .17+  .04+    200917 J69  .52-  .54+    
200916 104  .34-  .45-    200917 L01  .12+  .00     200917 Z80  .12-  .50+    
200916 958  .46+  .84+    200917 L01  .19+  .02-    200917 J69  .12+  .21-    
200916 958  .14+  .32+    200917 L01  .13+  .02+    200917 Z80  .45+  .46+    
200916 958  .12+  .12-    200917 L01  .18+  .03-    200917 Z80  .04+  .03+    
200916 104  .39-  .62-    200917 A17  .08-  .24-    200918 H21  .03-  .22+    
200916 595  .26+  .04+    200917 K87  .49+  .79+    200918 H36  .37+  .84-    
200916 104  .12-  .52-    200917 A17  .05+  .06-    200918 H21  .04+  .10-    
200916 K38  .19+  .16+    200917 K87  .15+  .31+    200918 H21  .02-  .22+    
200916 L04  .34+  .46-    200917 K87  .35+  .15+    200918 H36  .24+  .21-    
200916 K38  .09-  .12-    200917 A17  .02-  .15-    200918 H21  .17+  .14+    
200916 I93  .32+  .31+    200917 K87  .18+  .38-    200918 H21  .03+  .27+    
200916 L04  .15+  .09-    200917 A17  .06+  .07-    200918 H36  .13+  .24-    

Ephemerides (geocentric):
Date (UTC) HH   RA              Dec         delta   r     elong  mag " sig PA
---- -- -- --  -------------   -----------  ------ ------ -----  --- ---- ---
2020 09 18 02  15 36 55.143   +61 58 00.60  .09114 .98380  74.1 18.8 .122  79
2020 09 18 03  15 37 31.500   +61 54 29.72  .09116 .98384  74.1 18.8 .122  79
2020 09 18 04  15 38 07.695   +61 50 58.31  .09118 .98388  74.2 18.8 .123  80
2020 09 18 05  15 38 43.729   +61 47 26.36  .09120 .98392  74.2 18.8 .123  80
2020 09 18 06  15 39 19.601   +61 43 53.89  .09122 .98396  74.2 18.8 .124  80
2020 09 18 07  15 39 55.313   +61 40 20.89  .09124 .98400  74.3 18.8 .124  81
2020 09 18 08  15 40 30.865   +61 36 47.37  .09126 .98403  74.3 18.8 .125  81
2020 09 18 09  15 41 06.258   +61 33 13.34  .09128 .98407  74.3 18.8 .125  82
2020 09 18 10  15 41 41.492   +61 29 38.81  .09130 .98411  74.4 18.8 .126  82
2020 09 18 11  15 42 16.568   +61 26 03.78  .09132 .98415  74.4 18.8 .127  83
2020 09 18 12  15 42 51.486   +61 22 28.25  .09134 .98419  74.4 18.8 .127  83
2020 09 18 13  15 43 26.247   +61 18 52.24  .09136 .98423  74.5 18.8 .128  84
2020 09 18 14  15 44 00.852   +61 15 15.74  .09138 .98427  74.5 18.8 .129  84
2020 09 18 15  15 44 35.301   +61 11 38.76  .09140 .98430  74.6 18.8 .130  85
2020 09 18 16  15 45 09.594   +61 08 01.31  .09142 .98434  74.6 18.8 .131  86
2020 09 18 17  15 45 43.733   +61 04 23.40  .09144 .98438  74.6 18.8 .132  86
2020 09 18 18  15 46 17.718   +61 00 45.03  .09146 .98442  74.7 18.8 .133  87
2020 09 18 19  15 46 51.549   +60 57 06.20  .09148 .98445  74.7 18.8 .134  88
2020 09 18 20  15 47 25.228   +60 53 26.92  .09150 .98449  74.7 18.8 .136  88
2020 09 18 21  15 47 58.754   +60 49 47.19  .09153 .98453  74.8 18.8 .137  89
2020 09 18 22  15 48 32.129   +60 46 07.03  .09155 .98456  74.8 18.8 .138  90
2020 09 18 23  15 49 05.352   +60 42 26.44  .09157 .98460  74.8 18.8 .140  91
2020 09 19 00  15 49 38.425   +60 38 45.41  .09159 .98464  74.8 18.8 .141  91
2020 09 19 01  15 50 11.349   +60 35 03.96  .09161 .98467  74.9 18.8 .143  92
2020 09 19 02  15 50 44.123   +60 31 22.10  .09164 .98471  74.9 18.8 .144  93
2020 09 19 03  15 51 16.748   +60 27 39.82  .09166 .98474  74.9 18.8 .146  94
2020 09 19 04  15 51 49.225   +60 23 57.13  .09168 .98478  75.0 18.8 .148  94
2020 09 19 05  15 52 21.555   +60 20 14.04  .09171 .98481  75.0 18.8 .150  95
2020 09 19 06  15 52 53.738   +60 16 30.56  .09173 .98485  75.0 18.8 .152  96
2020 09 19 07  15 53 25.775   +60 12 46.68  .09175 .98488  75.1 18.8 .154  97
2020 09 19 08  15 53 57.667   +60 09 02.42  .09178 .98492  75.1 18.8 .156  97
2020 09 19 09  15 54 29.413   +60 05 17.77  .09180 .98495  75.1 18.8 .158  98
2020 09 19 10  15 55 01.015   +60 01 32.75  .09183 .98499  75.2 18.8 .160  99
2020 09 19 11  15 55 32.474   +59 57 47.35  .09185 .98502  75.2 18.8 .162 100
2020 09 19 12  15 56 03.789   +59 54 01.59  .09188 .98505  75.2 18.8 .165 101
2020 09 19 13  15 56 34.962   +59 50 15.46  .09190 .98509  75.3 18.8 .167 101
2020 09 19 14  15 57 05.994   +59 46 28.98  .09193 .98512  75.3 18.8 .170 102
2020 09 19 15  15 57 36.884   +59 42 42.15  .09195 .98515  75.3 18.8 .172 103
2020 09 19 16  15 58 07.633   +59 38 54.97  .09198 .98519  75.4 18.8 .175 104
2020 09 19 17  15 58 38.243   +59 35 07.44  .09200 .98522  75.4 18.8 .178 104
2020 09 19 18  15 59 08.713   +59 31 19.58  .09203 .98525  75.4 18.8 .181 105
2020 09 19 19  15 59 39.045   +59 27 31.39  .09205 .98529  75.4 18.8 .184 106
2020 09 19 20  16 00 09.238   +59 23 42.87  .09208 .98532  75.5 18.8 .187 107
2020 09 19 21  16 00 39.294   +59 19 54.02  .09211 .98535  75.5 18.8 .190 107
2020 09 19 22  16 01 09.213   +59 16 04.85  .09213 .98538  75.5 18.8 .193 108
2020 09 19 23  16 01 38.996   +59 12 15.37  .09216 .98541  75.6 18.8 .196 109
2020 09 20 00  16 02 08.644   +59 08 25.59  .09219 .98545  75.6 18.8 .199 109
2020 09 20 01  16 02 38.156   +59 04 35.49  .09221 .98548  75.6 18.8 .203 110